TVS430P LZIB-LJLJ

Flight info

Callsign TVS430P
Flight time N/A
Altitude 30000
Route TOVKA DCT RADLY
Aircraft B738/M-SDE2E3FGHIRWXY/LB1

Departure

Time N/A
Airport M. R. Štefánik Airport (LZIB)

Arrival

Time 2026-04-29 12:07
Airport Ljubljana Jože Pučnik Airport (LJLJ)
Time Latitude Longitude Altitude Speed Heading
2026-04-29 11:55 45.83559 15.23182 6692 ft 271 kts 300°
2026-04-29 11:55 45.84627 15.20993 6208 ft 260 kts 308°
2026-04-29 11:55 45.85678 15.18942 5729 ft 251 kts 307°
2026-04-29 11:55 45.86705 15.16905 5303 ft 241 kts 307°
2026-04-29 11:56 45.87657 15.15026 5256 ft 221 kts 307°
2026-04-29 11:56 45.88555 15.13254 4857 ft 218 kts 307°
2026-04-29 11:56 45.89434 15.11521 4615 ft 207 kts 307°
2026-04-29 11:56 45.90288 15.09838 4270 ft 203 kts 307°
2026-04-29 11:57 45.91111 15.08215 4025 ft 195 kts 307°
2026-04-29 11:57 45.91945 15.06570 3984 ft 210 kts 307°
2026-04-29 11:57 45.92847 15.04789 3985 ft 221 kts 307°
2026-04-29 11:57 45.93762 15.02971 3989 ft 223 kts 306°
2026-04-29 11:58 45.94649 15.01146 3992 ft 223 kts 306°
2026-04-29 11:58 45.95538 14.99318 3992 ft 224 kts 306°
2026-04-29 11:58 45.96446 14.97448 3992 ft 224 kts 306°
2026-04-29 11:58 45.97334 14.95618 3993 ft 224 kts 306°
2026-04-29 11:59 45.98244 14.93744 3993 ft 223 kts 304°
2026-04-29 11:59 45.99151 14.91883 3993 ft 222 kts 304°
2026-04-29 11:59 46.00031 14.90059 3993 ft 222 kts 304°
2026-04-29 11:59 46.00931 14.88194 3991 ft 220 kts 304°
2026-04-29 12:00 46.01784 14.86431 3994 ft 213 kts 304°
2026-04-29 12:00 46.02644 14.84649 3993 ft 212 kts 304°
2026-04-29 12:00 46.03496 14.82885 3993 ft 212 kts 304°
2026-04-29 12:00 46.04339 14.81138 3993 ft 212 kts 304°
2026-04-29 12:01 46.05193 14.79368 3993 ft 212 kts 304°
2026-04-29 12:01 46.06039 14.77613 3990 ft 208 kts 304°
2026-04-29 12:01 46.06833 14.75979 3989 ft 189 kts 304°
2026-04-29 12:01 46.07597 14.74466 3993 ft 187 kts 305°
2026-04-29 12:02 46.08371 14.72944 3993 ft 186 kts 305°
2026-04-29 12:02 46.09147 14.71437 3993 ft 186 kts 306°
2026-04-29 12:02 46.09912 14.69954 3993 ft 186 kts 307°
2026-04-29 12:02 46.10710 14.68434 3965 ft 189 kts 309°
2026-04-29 12:03 46.11240 14.67416 3967 ft 187 kts 308°
2026-04-29 12:03 46.12025 14.65893 3968 ft 188 kts 308°
2026-04-29 12:03 46.13077 14.63852 3962 ft 188 kts 308°
2026-04-29 12:03 46.13875 14.62305 3797 ft 191 kts 309°
2026-04-29 12:04 46.14666 14.60766 3480 ft 183 kts 308°
2026-04-29 12:04 46.15398 14.59344 3236 ft 171 kts 309°
2026-04-29 12:04 46.16100 14.57978 3014 ft 162 kts 309°
2026-04-29 12:04 46.16786 14.56643 2790 ft 162 kts 309°
2026-04-29 12:05 46.17450 14.55349 2573 ft 157 kts 309°
2026-04-29 12:05 46.18108 14.54067 2337 ft 157 kts 309°
2026-04-29 12:05 46.18767 14.52788 2123 ft 156 kts 308°
2026-04-29 12:05 46.19203 14.51933 1982 ft 158 kts 307°
2026-04-29 12:06 46.20063 14.50255 1692 ft 149 kts 308°
2026-04-29 12:06 46.20687 14.49040 1503 ft 148 kts 307°
2026-04-29 12:06 46.21300 14.47839 1309 ft 146 kts 309°
2026-04-29 12:06 46.21906 14.46663 1216 ft 141 kts 308°
2026-04-29 12:07 46.22346 14.45808 1234 ft 59 kts 307°
2026-04-29 12:07 46.22475 14.45563 1241 ft 12 kts 311°
2026-04-29 12:07 46.22528 14.45489 1244 ft 8 kts 320°
2026-04-29 12:07 46.22562 14.45449 1245 ft 4 kts 322°
2026-04-29 12:08 46.22581 14.45430 1246 ft 3 kts 327°
2026-04-29 12:08 46.22610 14.45405 1247 ft 5 kts 332°
2026-04-29 12:08 46.22653 14.45377 1249 ft 7 kts 338°
2026-04-29 12:08 46.22709 14.45347 1251 ft 9 kts 341°
2026-04-29 12:09 46.22773 14.45327 1254 ft 9 kts 350°
2026-04-29 12:09 46.22842 14.45321 1257 ft 8 kts 14°
2026-04-29 12:09 46.22890 14.45363 1260 ft 7 kts 42°
2026-04-29 12:09 46.22926 14.45406 1262 ft 5 kts 34°
2026-04-29 12:10 46.22958 14.45428 1264 ft 4 kts 23°
2026-04-29 12:10 46.22977 14.45446 1265 ft 2 kts 37°
2026-04-29 12:10 46.22990 14.45459 1265 ft 1 kts 37°
2026-04-29 12:10 46.22997 14.45467 1266 ft 0 kts 37°
2026-04-29 12:11 46.23001 14.45471 1266 ft 0 kts 37°